Luverne, MN

4:59 AM CDT on May 26, 2017 (GMT -0500)
Luverne

Weather History for KLYV - February, 2013

Change the Weather History Date:

Thursday, February 21, 2013

  Actual Average (KPQN) Record (KPQN)
Temperature  
Mean Temperature 18 °F -  
Max Temperature 24 °F 30 °F 62 °F (2017)
Min Temperature 12 °F 14 °F -14 °F (2001)
Degree Days  
Heating Degree Days 47    
Moisture  
Dew Point 11 °F    
Average Humidity 75    
Maximum Humidity 86    
Minimum Humidity 59    
Precipitation  
Precipitation 0.00 in - - ()
Sea Level Pressure  
Sea Level Pressure 30.14 in    
Wind  
Wind Speed 11 mph (ENE)    
Max Wind Speed 20 mph    
Max Gust Speed 25 mph    
Visibility 8 miles    
Events Snow    
Averages and records for this station are not official NWS values.
T = Trace of Precipitation, MM = Missing Value Source: NWS Daily Summary

Daily Weather History Graph

Daily Weather History Graph

Search for Another Location

Airport or City:

Trip Planner

Search our weather history database for the weather conditions in past years. The results will help you decide how hot, cold, wet, or windy it might be!

Date:

Astronomy

Feb. 21, 2013 Rise Set
Actual Time 7:13 AM CST 6:03 PM CST
Civil Twilight 6:44 AM CST 6:32 PM CST
Nautical Twilight 6:11 AM CST 7:06 PM CST
Astronomical Twilight 5:38 AM CST 7:39 PM CST
Moon 2:14 PM CST (2/21) 4:24 AM CST (2/21)
Length of Visible Light 11h 47m
Length of Day
10h 49m
Waxing Gibbous, 84% of the Moon is Illuminated
Feb 21
Waxing Gibbous
Feb 25
Full
Mar 4
Last Quarter
Mar 11
New
Mar 19
First Quarter

Hourly Weather History & Observations

Time (CST) Temp. Windchill Dew Point Humidity Pressure Visibility Wind Dir Wind Speed Gust Speed Precip Events Conditions
12:16 AM 14.0 °F 2.0 °F 8.6 °F 79% 30.27 in 10.0 mi East 9.2 mph - N/A   Overcast
12:36 AM 14.0 °F 1.2 °F 8.6 °F 79% 30.28 in 10.0 mi ESE 10.4 mph - N/A   Overcast
12:57 AM 14.0 °F 3.9 °F 8.6 °F 79% 30.29 in 10.0 mi ESE 6.9 mph - N/A   Overcast
1:16 AM 14.0 °F 2.9 °F 8.6 °F 79% 30.30 in 10.0 mi ESE 8.1 mph - N/A   Overcast
1:36 AM 14.0 °F 2.9 °F 8.6 °F 79% 30.29 in 10.0 mi ESE 8.1 mph - N/A   Overcast
1:57 AM 14.0 °F 2.9 °F 8.6 °F 79% 30.29 in 10.0 mi ESE 8.1 mph - N/A   Mostly Cloudy
2:16 AM 14.0 °F 5.1 °F 8.6 °F 79% 30.27 in 10.0 mi East 5.8 mph - N/A   Overcast
2:36 AM 14.0 °F 2.9 °F 8.6 °F 79% 30.26 in 10.0 mi ENE 8.1 mph - N/A   Scattered Clouds
2:57 AM 14.0 °F 1.2 °F 8.6 °F 79% 30.24 in 10.0 mi East 10.4 mph - N/A   Scattered Clouds
3:16 AM 12.2 °F -0.2 °F 8.6 °F 85% 30.24 in 10.0 mi East 9.2 mph - N/A   Scattered Clouds
3:37 AM 12.2 °F 0.7 °F 8.6 °F 85% 30.23 in 10.0 mi East 8.1 mph - N/A   Clear
3:57 AM 12.2 °F -0.2 °F 8.6 °F 85% 30.21 in 10.0 mi ENE 9.2 mph - N/A   Clear
4:16 AM 12.2 °F 0.7 °F 8.6 °F 85% 30.19 in 10.0 mi ENE 8.1 mph - N/A   Clear
4:37 AM 14.0 °F 6.5 °F 8.6 °F 79% 30.19 in 10.0 mi East 4.6 mph - N/A   Clear
4:56 AM 12.2 °F 6.1 °F 8.6 °F 85% 30.21 in 10.0 mi ESE 3.5 mph - N/A   Clear
5:16 AM 12.2 °F 2.9 °F 8.6 °F 85% 30.26 in 10.0 mi SE 5.8 mph - N/A   Clear
5:56 AM 12.2 °F 1.7 °F 8.6 °F 85% 30.25 in 10.0 mi East 6.9 mph - N/A   Clear
6:16 AM 12.2 °F 0.7 °F 8.6 °F 85% 30.21 in 10.0 mi ENE 8.1 mph - N/A   Clear
6:36 AM 12.2 °F 0.7 °F 8.6 °F 85% 30.21 in 10.0 mi East 8.1 mph - N/A   Clear
6:57 AM 12.2 °F -1.0 °F 8.6 °F 85% 30.21 in 10.0 mi East 10.4 mph - N/A   Scattered Clouds
7:16 AM 14.0 °F 2.0 °F 8.6 °F 79% 30.22 in 10.0 mi East 9.2 mph - N/A   Scattered Clouds
7:36 AM 14.0 °F 2.0 °F 8.6 °F 79% 30.21 in 10.0 mi ENE 9.2 mph - N/A   Mostly Cloudy
7:57 AM 14.0 °F 1.2 °F 8.6 °F 79% 30.21 in 10.0 mi East 10.4 mph - N/A   Mostly Cloudy
8:16 AM 14.0 °F -0.8 °F 8.6 °F 79% 30.21 in 10.0 mi East 13.8 mph 18.4 mph N/A   Overcast
8:36 AM 14.0 °F -2.0 °F 8.6 °F 79% 30.21 in 10.0 mi East 16.1 mph 20.7 mph N/A   Mostly Cloudy
8:57 AM 15.8 °F 1.4 °F 8.6 °F 73% 30.22 in 10.0 mi East 13.8 mph - N/A   Mostly Cloudy
9:16 AM 17.6 °F 4.3 °F 10.4 °F 73% 30.21 in 10.0 mi East 12.7 mph - N/A   Mostly Cloudy
9:36 AM 17.6 °F 4.3 °F 10.4 °F 73% 30.22 in 10.0 mi East 12.7 mph 17.3 mph N/A   Mostly Cloudy
9:57 AM 19.4 °F 6.0 °F 10.4 °F 68% 30.21 in 10.0 mi East 13.8 mph 18.4 mph N/A   Scattered Clouds
10:16 AM 19.4 °F 6.0 °F 10.4 °F 68% 30.22 in 10.0 mi East 13.8 mph - N/A   Scattered Clouds
10:36 AM 19.4 °F 6.6 °F 10.4 °F 68% 30.22 in 10.0 mi ESE 12.7 mph - N/A   Scattered Clouds
10:57 AM 21.2 °F 7.3 °F 10.4 °F 63% 30.21 in 10.0 mi ESE 16.1 mph - N/A   Scattered Clouds
11:16 AM 21.2 °F 8.3 °F 10.4 °F 63% 30.21 in 10.0 mi ESE 13.8 mph 21.9 mph N/A   Mostly Cloudy
11:37 AM 21.2 °F 7.3 °F 10.4 °F 63% 30.20 in 10.0 mi East 16.1 mph 21.9 mph N/A   Scattered Clouds
11:57 AM 23.0 °F 10.6 °F 10.4 °F 59% 30.18 in 10.0 mi East 13.8 mph - N/A   Clear
12:16 PM 23.0 °F 9.6 °F 10.4 °F 59% 30.17 in 10.0 mi East 16.1 mph 19.6 mph N/A   Clear
12:37 PM 23.0 °F 11.1 °F 10.4 °F 59% 30.16 in 10.0 mi East 12.7 mph - N/A   Scattered Clouds
12:56 PM 23.0 °F 10.1 °F 10.4 °F 59% 30.15 in 10.0 mi East 15.0 mph - N/A   Scattered Clouds
1:16 PM 23.0 °F 10.1 °F 10.4 °F 59% 30.13 in 10.0 mi East 15.0 mph - N/A   Mostly Cloudy
1:37 PM 24.8 °F 12.4 °F 12.2 °F 59% 30.12 in 10.0 mi ENE 15.0 mph 23.0 mph N/A   Mostly Cloudy
1:56 PM 24.8 °F 12.4 °F 12.2 °F 59% 30.11 in 10.0 mi ENE 15.0 mph - N/A   Overcast
2:16 PM 23.0 °F 10.1 °F 12.2 °F 63% 30.10 in 10.0 mi ENE 15.0 mph 23.0 mph N/A   Overcast
2:37 PM 23.0 °F 9.2 °F 12.2 °F 63% 30.09 in 10.0 mi ENE 17.3 mph 21.9 mph N/A   Overcast
2:56 PM 23.0 °F 9.2 °F 12.2 °F 63% 30.09 in 10.0 mi ENE 17.3 mph 23.0 mph N/A   Overcast
3:16 PM 23.0 °F 8.7 °F 12.2 °F 63% 30.09 in 10.0 mi ENE 18.4 mph 24.2 mph N/A   Overcast
3:37 PM 23.0 °F 8.7 °F 12.2 °F 63% 30.09 in 10.0 mi ENE 18.4 mph - N/A   Overcast
3:56 PM 23.0 °F 9.2 °F 12.2 °F 63% 30.10 in 10.0 mi ENE 17.3 mph - N/A   Overcast
4:16 PM 23.0 °F 9.6 °F 14.0 °F 68% 30.09 in 10.0 mi ENE 16.1 mph - N/A   Overcast
4:37 PM 21.2 °F 7.3 °F 14.0 °F 74% 30.09 in 10.0 mi ENE 16.1 mph 19.6 mph N/A   Overcast
4:56 PM 21.2 °F 7.3 °F 14.0 °F 74% 30.07 in 10.0 mi ENE 16.1 mph 21.9 mph N/A   Overcast
5:16 PM 21.2 °F 7.8 °F 14.0 °F 74% 30.05 in 10.0 mi ENE 15.0 mph 21.9 mph N/A   Overcast
5:37 PM 19.4 °F 4.1 °F 14.0 °F 80% 30.05 in 2.5 mi NE 18.4 mph 24.2 mph N/A Snow Light Snow
5:56 PM 19.4 °F 3.6 °F 14.0 °F 80% 30.03 in 2.5 mi NE 19.6 mph 25.3 mph N/A Snow Light Snow
6:17 PM 19.4 °F 4.1 °F 14.0 °F 80% 30.03 in 1.2 mi NE 18.4 mph 25.3 mph N/A Snow Light Snow
6:36 PM 19.4 °F 5.0 °F 14.0 °F 80% 30.04 in 7.0 mi ENE 16.1 mph 20.7 mph N/A Snow Light Snow
6:56 PM 19.4 °F 5.5 °F 12.2 °F 74% 30.03 in 10.0 mi ENE 15.0 mph 20.7 mph N/A   Overcast
7:17 PM 19.4 °F 6.0 °F 12.2 °F 74% 30.03 in 10.0 mi ENE 13.8 mph - N/A   Overcast
7:36 PM 19.4 °F 5.5 °F 12.2 °F 74% 30.02 in 3.0 mi ENE 15.0 mph - N/A Snow Light Snow
7:56 PM 19.4 °F 4.5 °F 12.2 °F 74% 30.02 in 10.0 mi ENE 17.3 mph 23.0 mph N/A   Overcast
8:16 PM 19.4 °F 4.5 °F 12.2 °F 74% 30.02 in 10.0 mi NE 17.3 mph 25.3 mph N/A   Overcast
8:36 PM 19.4 °F 4.5 °F 12.2 °F 74% 30.01 in 10.0 mi ENE 17.3 mph - N/A   Overcast
8:57 PM 19.4 °F 5.5 °F 12.2 °F 74% 30.02 in 7.0 mi ENE 15.0 mph - N/A Snow Light Snow
9:16 PM 19.4 °F 5.0 °F 14.0 °F 80% 30.02 in 1.8 mi ENE 16.1 mph 19.6 mph N/A Snow Light Snow
9:36 PM 19.4 °F 5.5 °F 14.0 °F 80% 30.02 in 1.2 mi ENE 15.0 mph - N/A Snow Light Snow
9:57 PM 19.4 °F 6.6 °F 14.0 °F 80% 30.01 in 1.2 mi NE 12.7 mph 18.4 mph N/A Snow Light Snow
10:16 PM 19.4 °F 6.0 °F 14.0 °F 80% 30.00 in 1.5 mi NE 13.8 mph 18.4 mph N/A Snow Light Snow
10:36 PM 19.4 °F 5.0 °F 14.0 °F 80% 29.99 in 2.0 mi NE 16.1 mph 21.9 mph N/A Snow Light Snow
10:56 PM 19.4 °F 5.5 °F 14.0 °F 80% 29.98 in 2.5 mi NE 15.0 mph - N/A Snow Light Snow
11:16 PM 17.6 °F 2.7 °F 14.0 °F 86% 29.98 in 2.5 mi NE 16.1 mph - N/A Snow Light Snow
11:37 PM 17.6 °F 3.2 °F 14.0 °F 86% 29.97 in 3.0 mi NE 15.0 mph 20.7 mph N/A Snow Light Snow
11:56 PM 17.6 °F 3.7 °F 14.0 °F 86% 29.97 in 7.0 mi NE 13.8 mph 20.7 mph N/A Snow Light Snow